CAPE
1005 932 1085 1209 1120 1017 1325 1571 2055 2146 2044 2041 2002 1958 1880 1776 1618 1501 1533 1468 1590 1530 1468 1514 1517 1455 1355 1466 1302 1389 1285 1274 1133 1118 1026 822 468 355 205 105 48 16 1 0 6 145 356 349 480 436 268 262 302 382 402 477 521 560 563 616 476 536 563 576 536 505 512 498 616 653 475 408 512 504 544 344 224 266 259 249 302 310 435 509 472
1122 896 1077 1266 1164 1010 1378 1593 2022 2094 2046 2023 1960 1938 1872 1698 1651 1673 1658 1581 1543 1506 1500 1399 1344 1351 1325 1337 1416 1439 1367 1228 1150 1022 834 655 428 282 165 119 51 12 0 0 0 8 200 256 263 331 272 173 121 139 198 304 386 439 436 359 372 501 547 513 451 432 369 311 333 366 375 362 288 558 446 498 316 203 125 178 182 69 186 214 136
1410 1008 1067 1372 1192 1222 1470 1678 1965 2035 2086 2022 2010 1985 1804 1770 1739 1734 1728 1642 1557 1564 1448 1419 1310 1250 1282 1204 1288 1283 1288 1254 1193 960 790 425 320 183 151 91 25 6 0 0 0 0 68 194 140 149 156 75 67 25 98 221 276 262 273 246 354 527 467 434 384 375 302 217 153 166 181 372 514 514 462 547 433 207 136 97 83 194 131 152 17
1574 1633 1284 1168 1222 1429 1821 2134 2061 1963 1973 2031 2074 2044 1986 1877 1823 1827 1802 1734 1691 1576 1399 1353 1349 1347 1333 1268 1139 1207 1267 1200 1089 1041 938 562 315 192 120 59 20 14 2 0 0 0 9 52 108 55 44 23 21 40 233 240 179 218 220 250 436 524 491 421 319 227 165 121 68 14 127 143 131 284 300 293 349 354 241 142 20 9 6 1 0
1586 1719 1714 1590 1586 1815 2143 2030 2009 1983 2050 2104 2008 1964 1945 1886 1832 1822 1786 1766 1664 1461 1314 1239 1211 1139 1136 1062 1031 986 1041 1000 1035 915 814 661 319 192 137 91 32 14 5 0 0 0 6 9 31 12 5 12 24 61 85 127 213 201 194 268 349 429 356 261 179 114 68 40 23 6 0 9 113 270 157 370 484 281 148 138 26 0 0 0 0
1618 1698 1812 1750 1743 1623 1881 1940 1710 1936 2013 2097 1920 1922 1905 1854 1824 1771 1748 1684 1562 1438 1294 1213 1195 1028 966 881 863 739 850 964 926 818 764 644 283 232 206 137 95 21 11 2 0 0 0 0 12 6 11 12 19 26 52 141 202 199 252 308 315 323 222 153 93 49 25 17 11 0 1 1 36 81 290 160 62 32 32 21 4 0 0 0 0
1661 1722 1847 1788 1768 1806 1837 1682 1672 1833 1918 1928 1886 1809 1841 1839 1817 1750 1702 1654 1526 1288 1097 982 931 902 894 871 817 755 680 895 818 730 672 498 323 243 211 128 66 28 20 2 0 0 0 1 1 3 11 10 11 17 44 132 186 212 318 274 340 294 214 112 59 27 6 0 0 0 0 7 28 61 72 21 1 0 0 0 0 0 0 0 0
1680 1757 1874 1843 1776 1654 1698 1872 1817 1739 1807 1860 1851 1757 1864 1802 1766 1716 1692 1598 1460 1320 1148 1059 974 879 919 871 884 922 830 833 888 725 671 377 329 264 196 126 74 15 7 1 0 0 0 1 1 2 2 3 9 17 49 103 153 271 307 283 259 183 110 32 9 5 0 0 0 0 0 3 39 55 43 3 0 0 0 0 0 2 2 2 1
1656 1757 1801 1835 1730 1718 1618 1740 1712 1698 1763 1735 1746 1789 1800 1728 1729 1680 1576 1477 1410 1368 1312 1096 1013 998 947 796 760 759 762 785 781 726 577 390 344 244 161 122 99 30 5 0 0 0 0 1 3 2 1 2 5 12 25 96 179 311 304 218 91 26 10 0 0 0 0 0 0 0 0 14 25 20 72 28 6 0 1 1 4 6 4 3 3
1598 1732 1770 1808 1763 1730 1591 1561 1660 1653 1681 1657 1624 1577 1686 1772 1698 1594 1477 1460 1445 1370 1342 1315 1237 1172 1106 1016 946 840 824 752 799 561 328 364 269 205 129 84 50 27 5 0 0 0 0 0 0 2 2 2 2 8 33 96 170 314 248 129 57 17 0 0 0 0 0 0 0 0 14 7 9 5 2 0 5 14 4 8 6 5 6 5 6
1592 1695 1759 1788 1753 1760 1740 1508 1547 1652 1800 1778 1804 1770 1744 1646 1642 1535 1489 1459 1438 1444 1412 1358 1313 1292 1229 1120 953 846 800 772 655 446 392 406 260 170 117 74 36 15 0 0 0 0 0 0 0 1 2 2 2 6 29 51 147 205 113 46 17 1 0 0 0 0 0 0 0 0 0 11 0 5 7 2 4 10 19 6 4 9 12 8 6
1550 1611 1774 1778 1760 1778 1778 1814 1682 1528 1850 1826 1824 1790 1742 1721 1610 1510 1399 1280 1433 1448 1388 1251 1239 1164 1096 1043 942 892 818 668 585 406 375 341 241 147 100 59 23 6 0 0 0 0 0 0 0 0 0 1 0 0 0 9 95 82 30 6 1 0 0 0 0 0 0 0 0 0 0 0 4 8 8 6 6 8 8 11 5 8 11 12 9
1534 1526 1663 1736 1760 1711 1707 1644 1642 1735 1746 1747 1756 1729 1733 1733 1621 1478 1332 1413 1284 1261 1296 1192 1132 1069 981 925 880 863 817 668 570 474 443 342 183 116 125 79 13 0 0 0 0 0 0 0 0 0 0 0 0 0 0 1 23 12 0 0 0 0 0 0 0 0 0 0 0 0 0 0 2 10 6 8 11 10 9 7 9 7 11 5 12
1511 1509 1480 1622 1793 1702 1624 1607 1574 1565 1708 1674 1695 1680 1684 1692 1519 1468 1374 1243 1241 1292 1278 1298 1070 1062 1006 910 908 876 774 643 560 463 430 394 225 161 138 73 20 0 0 0 0 0 0 0 0 0 0 0 0 0 0 0 0 0 0 0 0 0 0 0 0 0 0 0 0 0 0 8 12 14 11 12 14 13 9 8 5 7 10 5 9
1414 1484 1487 1512 1639 1619 1577 1600 1643 1494 1599 1600 1654 1506 1585 1600 1439 1248 1390 1380 1371 1298 1260 1238 1071 1078 1020 977 969 926 738 663 585 454 509 451 288 203 145 107 19 0 0 0 0 0 0 0 0 0 0 0 0 0 0 0 0 0 0 0 0 0 0 0 0 0 0 0 0 0 2 12 22 19 16 14 17 17 12 7 8 10 8 8 10
1358 1395 1484 1587 1610 1614 1656 1655 1620 1536 1539 1574 1409 1398 1509 1464 1301 1300 1272 1239 1267 1331 1094 1199 1148 1106 1047 1014 963 918 747 711 606 535 564 485 368 207 162 121 15 0 0 0 0 0 0 0 0 0 0 0 0 0 0 0 0 0 0 0 0 0 0 0 0 0 0 0 0 3 7 15 21 18 16 15 16 15 13 10 12 10 9 6 6
1293 1376 1479 1630 1679 1727 1682 1644 1618 1570 1607 1579 1508 1424 1338 1302 1374 1331 1418 1317 1430 1404 1206 1135 1023 1258 1162 1116 1086 983 897 724 635 607 604 495 310 182 117 44 0 0 0 0 0 0 0 0 0 0 0 0 0 0 0 0 0 0 0 0 0 0 0 0 0 0 0 0 0 0 7 19 22 13 12 13 12 13 10 10 9 9 5 5 4
1366 1538 1557 1570 1685 1806 1793 1721 1614 1534 1552 1489 1507 1441 1380 1424 1410 1362 1394 1386 1461 1445 1346 1312 1128 1124 1156 1077 920 850 874 846 731 674 609 478 305 164 118 52 0 0 0 0 0 0 0 0 0 0 0 0 0 0 0 0 0 0 0 0 0 0 0 0 0 0 0 0 0 0 0 21 19 12 12 10 11 10 9 10 7 5 5 4 4
1488 1592 1512 1568 1602 1459 1608 1614 1500 1617 1572 1447 1432 1424 1339 1383 1368 1287 1357 1304 1319 1267 1218 1170 1123 1050 990 856 808 772 677 622 596 629 553 336 198 147 98 28 0 0 0 0 0 0 0 0 0 0 0 0 0 0 0 0 0 0 0 0 0 0 0 0 0 0 0 0 0 0 0 2 3 6 15 11 8 7 12 14 29 69 19 8 4
1255 1229 1029 1028 700 934 1101 1622 1685 1522 1539 1495 1495 1499 1418 1335 1320 1286 1288 1312 1244 1161 1153 1157 1124 1043 927 769 770 728 646 554 512 274 248 279 96 20 83 49 0 0 0 0 0 0 0 0 0 0 0 0 0 0 0 0 0 0 0 0 0 0 0 0 0 0 0 0 0 0 0 0 1 7 14 16 9 9 21 37 31 57 53 30 37
882 805 715 600 543 766 1036 1467 1423 1306 1398 1411 1410 1482 1403 1353 1293 1192 1231 1319 1191 1122 1155 1108 1041 1012 916 717 733 711 635 565 487 356 0 0 0 1 37 88 0 0 0 0 0 0 0 0 0 0 0 0 0 0 0 0 0 0 0 0 0 0 0 0 0 0 0 0 0 0 1 5 3 4 10 12 17 12 17 28 23 27 32 22 30
651 582 565 477 422 1062 958 1179 1208 1160 1109 1292 1294 1255 1290 1280 1182 1221 1180 1185 1137 1089 1060 1056 1012 949 826 694 656 673 596 530 465 317 305 0 0 0 6 62 26 0 0 0 0 0 0 0 0 0 0 0 0 0 0 0 0 0 0 0 0 0 0 0 0 0 0 0 0 0 0 2 4 4 6 4 5 11 12 8 2 5 13 20 26
363 374 352 328 307 1074 906 1070 1064 1115 1119 1112 1102 1137 1207 1206 1233 1206 1150 1052 1092 1063 1026 996 974 856 725 621 612 624 532 470 447 286 269 222 34 0 0 0 1 0 0 1 0 0 0 0 0 0 0 0 0 0 0 0 0 0 0 0 0 0 0 0 0 0 0 0 0 0 0 0 0 0 0 0 0 0 0 0 0 0 0 4 19
286 291 311 130 0 60 433 979 958 1096 1085 1136 1056 1112 1127 1170 1202 1133 1038 1045 1056 1030 1009 992 929 814 744 656 561 552 514 499 440 330 227 200 123 54 0 0 0 0 0 0 0 0 0 0 0 0 0 0 0 0 0 0 0 0 0 0 0 0 0 0 0 0 0 0 0 0 0 0 0 0 1 0 0 0 0 0 0 0 0 2 10
67 238 268 221 174 0 0 424 496 577 580 750 1090 1138 1118 1212 1181 1109 1001 1057 1065 1018 1021 774 888 771 740 703 620 543 458 448 503 397 246 191 161 62 1 0 1 0 0 0 0 0 0 0 0 0 0 0 0 0 0 0 0 0 0 0 0 0 0 0 0 0 0 0 0 0 0 2 3 6 6 5 3 3 3 3 2 1 0 0 0
0 0 0 31 183 154 192 234 304 364 434 503 793 1154 1157 1155 1145 1028 940 970 962 1005 994 784 877 746 732 623 618 543 514 378 525 447 324 197 198 86 2 0 3 2 0 1 1 0 0 0 0 0 0 0 0 0 0 0 0 0 0 0 0 0 0 0 0 0 0 0 0 0 0 0 1 8 8 8 5 5 4 4 6 4 5 2 0
0 0 0 0 0 144 200 262 328 365 420 423 746 1068 1200 1111 999 941 870 773 810 1005 896 888 941 850 800 673 566 557 490 436 441 338 320 234 212 120 4 0 2 3 0 1 1 0 2 2 0 0 0 0 0 0 0 0 0 0 0 0 0 0 0 0 0 0 0 0 0 0 0 0 0 3 6 7 10 8 9 7 10 13 9 10 6
0 0 0 0 0 28 132 100 235 393 430 475 767 844 954 1043 978 919 923 808 855 905 723 830 915 761 762 640 556 586 509 391 385 478 363 280 210 161 36 4 2 6 4 3 2 3 5 3 3 0 0 0 0 0 0 0 0 0 0 0 0 0 0 0 0 0 0 0 0 0 0 0 0 0 0 2 7 7 6 6 8 9 10 9 11
0 0 0 0 0 0 0 0 19 352 468 537 649 741 963 1058 1041 859 780 641 735 829 549 652 558 612 519 540 483 518 461 460 350 252 230 246 138 160 114 14 5 5 8 5 4 3 3 12 3 1 2 3 0 1 0 0 0 0 0 0 1 0 0 0 0 0 0 0 0 0 0 0 0 0 0 0 0 4 12 17 11 16 17 20 18
0 0 0 0 0 0 0 0 66 274 420 463 403 704 987 1124 933 892 841 524 746 593 454 573 348 329 357 482 482 312 423 471 368 314 294 163 127 110 168 64 22 13 7 5 11 2 5 6 6 3 6 5 4 0 5 7 2 5 7 5 0 0 0 0 1 0 0 0 0 0 0 0 0 0 0 0 0 0 4 7 7 9 16 20 26
0 0 0 0 0 0 0 0 14 218 290 365 362 483 721 834 874 786 718 568 620 452 447 310 347 408 469 503 404 324 380 276 230 142 271 72 64 118 148 121 50 20 16 9 26 12 12 10 18 11 10 10 9 4 6 8 3 5 6 2 0 0 0 0 1 1 0 0 0 0 0 0 0 0 0 0 0 0 0 2 5 4 5 8 22
0 0 0 1 4 1 0 0 0 138 247 284 330 358 495 549 638 439 591 467 550 396 399 332 423 291 254 402 494 450 394 246 31 0 179 80 49 42 1 52 52 7 12 23 29 36 5 7 18 7 6 7 4 7 3 5 5 7 11 6 3 5 4 2 1 0 0 0 0 0 0 0 0 0 0 0 0 0 0 0 0 0 0 3 10
0 0 0 4 4 0 0 0 0 33 180 234 305 258 308 502 312 70 576 621 584 466 426 378 384 184 180 257 380 416 361 335 295 179 0 0 2 53 70 84 59 24 17 18 31 41 3 9 16 12 10 11 2 7 6 10 8 8 9 8 10 8 7 3 0 0 0 0 0 0 0 0 0 0 0 0 0 0 0 0 0 0 0 0 0
0 0 3 5 3 4 0 0 0 5 110 192 194 163 261 442 279 282 490 715 754 321 338 159 166 191 203 187 213 194 165 174 227 227 130 0 100 97 0 10 47 45 17 25 24 6 5 15 27 19 22 9 0 4 5 9 9 4 4 8 6 3 0 0 0 0 0 0 0 0 0 0 0 0 0 0 0 0 0 0 0 0 0 0 0
0 1 5 4 6 4 0 0 0 4 42 167 100 162 303 226 168 145 366 460 338 250 248 66 82 5 7 8 8 14 30 10 9 53 124 196 153 21 8 0 32 42 15 20 22 15 22 20 20 22 9 0 3 4 9 8 12 8 8 4 0 0 0 0 0 0 0 0 0 0 0 0 0 0 0 0 0 0 0 0 0 0 0 0 0
2 4 2 5 8 4 2 0 3 6 31 118 107 158 292 179 128 131 166 205 107 20 20 29 15 12 15 12 8 12 9 7 4 26 113 69 13 11 5 8 22 4 10 14 17 34 33 26 13 5 1 0 2 2 2 4 5 3 1 0 0 0 0 0 0 0 0 0 0 0 0 0 0 0 0 0 0 0 0 0 0 0 0 0 0
3 4 2 7 10 5 7 8 6 7 15 52 105 104 152 114 113 107 115 127 78 13 7 19 16 9 6 7 4 5 8 13 17 32 55 32 31 32 19 21 5 0 12 12 18 31 26 10 2 1 0 0 0 0 0 0 0 0 0 0 0 0 0 0 0 0 0 0 0 0 0 0 0 0 0 0 0 0 0 0 0 0 0 0 0
3 4 1 6 6 4 7 8 7 12 15 15 31 38 58 57 99 159 73 12 26 24 17 8 8 3 1 3 5 5 5 7 8 8 17 23 24 22 20 5 1 7 8 4 10 11 6 1 0 0 0 0 0 0 0 0 0 0 0 0 0 0 0 0 0 0 0 0 0 0 0 0 0 0 0 0 0 0 0 0 0 0 0 0 0
3 4 0 8 5 5 6 8 10 12 15 15 19 19 13 4 14 78 83 36 18 17 5 3 8 7 2 4 8 8 9 7 3 2 8 8 8 6 4 2 7 6 2 4 4 0 0 0 0 0 0 0 0 0 0 0 0 0 0 0 0 0 0 0 0 0 0 0 0 0 0 0 0 0 0 0 0 0 0 0 0 0 0 0 0
3 6 1 6 8 8 5 5 10 13 9 10 14 13 6 14 6 6 4 12 17 14 6 6 8 9 3 3 6 8 6 8 9 8 10 10 8 4 4 1 0 0 0 0 0 0 0 0 0 0 0 0 0 0 0 0 0 0 0 0 0 0 0 0 0 0 0 0 0 0 0 0 0 0 0 0 0 0 0 0 0 0 0 0 0
3 5 2 7 8 7 7 3 4 10 11 10 12 7 4 5 8 2 1 6 8 4 2 4 5 2 2 4 5 6 8 11 10 10 8 8 7 2 0 1 1 0 0 0 0 0 0 0 0 0 0 0 0 0 0 0 0 0 0 0 0 0 0 0 0 0 0 0 0 0 0 0 0 0 0 0 0 0 0 0 0 0 0 0 0
3 4 2 4 8 5 6 6 2 4 12 12 7 5 11 7 4 3 10 4 3 1 0 4 3 2 3 4 5 4 4 7 8 8 4 4 0 0 0 0 0 0 0 0 0 0 0 0 0 0 0 0 0 0 0 0 0 0 0 0 0 0 0 0 0 0 0 0 0 0 0 0 0 0 0 0 0 0 0 0 0 0 0 0 0
2 2 4 1 5 5 8 8 1 2 4 4 8 5 12 12 6 0 13 14 8 3 3 3 0 3 2 2 4 4 3 3 4 3 2 0 0 0 0 0 0 0 0 0 0 0 0 0 0 0 0 0 0 0 0 0 0 0 0 0 0 0 0 0 0 0 0 0 0 0 0 0 0 0 0 0 0 0 0 0 0 0 0 0 0
2 1 1 2 2 0 2 4 3 2 4 1 3 8 4 2 4 3 8 8 1 1 0 0 0 1 0 2 3 1 1 1 2 1 0 0 0 0 0 0 0 0 0 0 0 0 0 0 0 0 0 0 0 0 0 0 0 0 0 0 0 0 0 0 0 0 0 0 0 0 0 0 0 0 0 0 0 0 0 0 0 0 0 0 0
2 1 0 0 1 1 0 1 8 3 0 1 1 3 4 2 4 0 6 3 1 0 0 0 0 0 0 0 0 0 0 0 0 0 0 0 0 0 0 0 0 0 0 0 0 0 0 0 0 0 0 0 0 0 0 0 0 0 0 0 0 0 0 0 0 0 0 0 0 0 0 0 0 0 0 0 0 0 0 0 0 0 0 0 0
1 0 0 0 0 1 1 1 3 6 7 3 6 2 0 0 0 3 4 3 0 0 0 0 0 0 0 0 0 0 0 0 0 0 0 0 0 0 0 0 0 0 0 0 0 0 0 0 0 0 0 0 0 0 0 0 0 0 0 0 0 0 0 0 0 0 0 0 0 0 0 0 0 0 0 0 0 0 0 0 0 0 0 0 0
0 1 0 1 3 2 0 2 2 0 4 3 4 2 0 2 5 6 2 0 0 0 0 0 0 0 0 0 0 0 0 0 0 0 0 0 0 0 0 0 0 0 0 0 0 0 0 0 0 0 0 0 0 0 0 0 0 0 0 0 0 0 0 0 0 0 0 0 0 0 0 0 0 0 0 0 0 0 0 0 0 0 0 0 0
0 1 0 0 1 2 2 2 6 10 3 4 0 0 3 4 7 4 1 0 0 0 0 0 0 0 0 0 0 0 0 0 0 0 0 0 0 0 0 0 0 0 0 0 0 0 0 0 0 0 0 0 0 0 0 0 0 0 0 0 0 0 0 0 0 0 0 0 0 0 0 0 0 0 0 0 0 0 0 0 0 0 0 0 0
0 2 0 0 2 4 3 1 4 8 8 9 6 5 9 11 11 7 0 0 2 1 0 1 0 0 0 0 0 0 0 0 0 0 0 0 0 0 0 0 0 0 0 0 0 0 0 0 0 0 0 0 0 0 0 0 0 0 0 0 0 0 0 0 0 0 0 0 0 0 0 0 0 0 0 0 0 0 0 0 0 0 0 0 0
1 2 1 3 4 5 5 2 0 1 3 9 13 12 6 3 1 1 0 1 2 0 0 1 4 0 0 0 0 0 0 0 0 0 0 0 0 0 0 0 0 0 0 0 0 0 0 0 0 0 0 0 0 0 0 0 0 0 0 0 0 0 0 0 0 0 0 0 0 0 0 0 0 0 0 0 0 0 0 0 0 0 0 0 0
1 1 1 3 4 4 5 5 1 1 4 5 8 10 8 2 0 1 6 8 3 0 1 2 3 0 0 0 0 0 0 0 0 0 0 0 0 0 0 0 0 0 0 0 0 0 0 0 0 0 0 0 0 0 0 0 0 0 0 0 0 0 0 0 0 0 0 0 0 0 0 0 0 0 0 0 0 0 0 0 0 0 0 0 0
Wind_Speed
12 9 8 8 7 7 4 2 5 7 9 11 12 13 14 14 14 15 15 15 16 16 17 18 17 16 16 17 17 18 18 18 18 18 19 21 19 19 19 19 nan nan nan nan nan 17 17 17 17 17 17 17 17 17 17 19 20 19 19 20 19 19 20 21 21 21 20 20 21 22 21 21 24 24 24 24 24 23 23 23 20 18 16 19 25
10 10 10 10 12 9 9 6 2 3 6 8 10 12 13 13 14 14 14 15 16 16 16 16 16 17 18 17 17 17 16 16 16 17 19 19 18 18 19 18 nan nan nan nan nan nan 16 16 16 17 17 17 17 16 16 18 19 18 18 19 19 18 19 20 20 20 20 19 19 19 19 22 22 23 24 24 24 23 22 22 22 nan 14 22 22
8 8 8 9 11 14 13 9 6 3 3 5 7 8 9 11 12 14 15 16 17 16 16 16 16 16 16 17 17 16 16 16 15 16 18 17 16 17 18 nan nan nan nan nan nan nan nan 15 15 16 16 nan nan nan nan 17 17 16 17 18 18 18 19 20 20 19 18 18 18 17 18 19 21 22 23 24 25 24 22 nan nan 20 17 22 nan
9 9 8 12 18 15 11 8 6 4 3 2 2 3 4 7 10 13 15 17 18 18 17 17 16 16 17 17 17 17 16 16 17 16 16 17 17 18 18 nan nan nan nan nan nan nan nan nan 15 nan nan nan nan nan 16 15 15 16 17 18 19 19 20 20 19 18 18 18 nan nan 10 9 13 21 23 24 26 25 21 22 nan nan nan nan nan
9 8 8 9 9 9 7 6 6 5 4 4 3 3 2 3 6 9 12 14 16 17 17 17 18 18 18 18 18 19 18 18 18 18 19 19 20 19 19 nan nan nan nan nan nan nan nan nan nan nan nan nan nan nan nan 15 16 17 17 18 19 19 19 18 18 17 nan nan nan nan nan nan 11 19 22 25 25 23 22 23 nan nan nan nan nan
9 8 8 7 6 6 6 5 6 4 3 3 3 3 2 2 2 4 6 9 12 13 14 15 16 17 18 19 20 21 20 20 21 21 20 21 21 21 21 21 nan nan nan nan nan nan nan nan nan nan nan nan nan nan nan 16 18 19 18 19 20 19 18 18 nan nan nan nan nan nan nan nan nan nan 23 23 nan nan nan nan nan nan nan nan nan
9 7 7 7 6 6 8 8 9 7 6 4 4 3 3 2 2 2 4 5 7 8 8 9 10 12 13 16 19 20 22 22 22 24 24 23 22 23 23 23 nan nan nan nan nan nan nan nan nan nan nan nan nan nan nan 18 20 20 21 23 22 20 20 20 nan nan nan nan nan nan nan nan nan nan nan nan nan nan nan nan nan nan nan nan nan
5 5 5 5 6 8 10 9 9 10 9 8 6 5 4 4 3 3 3 4 5 6 6 6 7 7 9 11 14 15 17 19 21 22 24 23 24 25 25 25 nan nan nan nan nan nan nan nan nan nan nan nan nan nan nan 23 23 24 25 25 24 22 22 nan nan nan nan nan nan nan nan nan nan nan nan nan nan nan nan nan nan nan nan nan nan
6 5 5 4 5 9 10 9 10 11 10 9 9 8 7 6 5 5 4 4 5 5 6 6 6 7 8 9 10 11 11 13 16 17 18 18 20 21 22 22 nan nan nan nan nan nan nan nan nan nan nan nan nan nan nan nan 25 26 26 26 nan nan nan nan nan nan nan nan nan nan nan nan nan nan nan nan nan nan nan nan nan nan nan nan nan
7 6 5 4 5 8 9 8 11 11 11 10 8 8 8 8 7 7 7 7 7 7 7 7 7 8 9 9 10 10 10 11 13 12 12 13 15 15 16 nan nan nan nan nan nan nan nan nan nan nan nan nan nan nan nan nan 24 25 25 25 nan nan nan nan nan nan nan nan nan nan nan nan nan nan nan nan nan nan nan nan nan nan nan nan nan
5 5 5 4 5 9 8 10 7 9 10 8 8 9 8 9 8 9 9 8 9 9 9 9 9 9 10 10 10 10 10 11 12 12 12 13 13 12 13 nan nan nan nan nan nan nan nan nan nan nan nan nan nan nan nan nan 22 23 23 nan nan nan nan nan nan nan nan nan nan nan nan nan nan nan nan nan nan nan nan nan nan nan nan nan nan
5 3 3 2 5 8 9 8 10 10 10 10 9 8 9 8 8 9 9 9 9 10 10 10 10 10 10 11 11 11 11 11 12 12 12 13 12 12 nan nan nan nan nan nan nan nan nan nan nan nan nan nan nan nan nan nan nan nan nan nan nan nan nan nan nan nan nan nan nan nan nan nan nan nan nan nan nan nan nan nan nan nan nan nan nan
4 3 2 2 2 5 7 8 8 9 9 11 11 10 9 9 9 10 10 9 9 10 11 10 11 11 11 11 11 11 11 11 11 11 12 13 12 12 13 nan nan nan nan nan nan nan nan nan nan nan nan nan nan nan nan nan nan nan nan nan nan nan nan nan nan nan nan nan nan nan nan nan nan nan nan nan nan nan nan nan nan nan nan nan nan
5 4 4 4 3 5 7 7 7 7 8 8 10 9 8 8 9 10 10 9 10 10 12 12 12 13 12 12 12 11 11 11 12 11 12 13 13 12 13 nan nan nan nan nan nan nan nan nan nan nan nan nan nan nan nan nan nan nan nan nan nan nan nan nan nan nan nan nan nan nan nan nan nan nan nan nan nan nan nan nan nan nan nan nan nan
7 5 4 3 3 3 5 6 6 7 6 7 7 8 7 8 9 10 10 9 10 11 11 13 13 14 14 13 13 13 13 13 13 12 14 14 15 14 14 15 nan nan nan nan nan nan nan nan nan nan nan nan nan nan nan nan nan nan nan nan nan nan nan nan nan nan nan nan nan nan nan nan nan nan nan nan nan nan nan nan nan nan nan nan nan
8 7 6 4 3 2 2 4 6 5 7 6 6 6 6 6 7 8 10 9 10 10 11 12 13 14 15 15 15 15 14 14 14 15 15 16 16 17 17 17 nan nan nan nan nan nan nan nan nan nan nan nan nan nan nan nan nan nan nan nan nan nan nan nan nan nan nan nan nan nan nan nan nan nan nan nan nan nan nan nan nan nan nan nan nan
9 9 9 7 6 5 4 3 2 5 5 6 5 6 6 6 6 7 7 8 7 8 10 11 12 14 14 14 15 14 14 14 15 17 17 17 18 18 18 nan nan nan nan nan nan nan nan nan nan nan nan nan nan nan nan nan nan nan nan nan nan nan nan nan nan nan nan nan nan nan nan nan nan nan nan nan nan nan nan nan nan nan nan nan nan
9 10 10 8 6 7 7 7 5 4 4 5 6 5 5 6 6 6 5 6 7 7 8 9 11 11 11 11 13 13 13 13 14 16 17 17 17 18 19 nan nan nan nan nan nan nan nan nan nan nan nan nan nan nan nan nan nan nan nan nan nan nan nan nan nan nan nan nan nan nan nan nan nan nan nan nan nan nan nan nan nan nan nan nan nan
11 11 10 10 8 6 5 8 8 7 7 6 6 6 7 7 8 8 7 7 8 8 9 10 10 10 11 12 12 12 13 13 13 14 15 14 15 15 nan nan nan nan nan nan nan nan nan nan nan nan nan nan nan nan nan nan nan nan nan nan nan nan nan nan nan nan nan nan nan nan nan nan nan nan nan nan nan nan nan nan nan nan nan nan nan
10 11 12 11 9 8 6 5 10 9 9 9 9 9 8 10 11 10 10 10 10 11 11 12 12 12 13 13 13 12 12 12 14 12 14 14 nan nan nan nan nan nan nan nan nan nan nan nan nan nan nan nan nan nan nan nan nan nan nan nan nan nan nan nan nan nan nan nan nan nan nan nan nan nan nan nan nan nan nan nan nan nan nan nan nan
10 11 10 9 9 10 9 9 9 11 11 10 10 10 10 12 11 11 12 12 12 14 14 15 15 15 15 14 14 13 12 11 11 11 nan nan nan nan nan nan nan nan nan nan nan nan nan nan nan nan nan nan nan nan nan nan nan nan nan nan nan nan nan nan nan nan nan nan nan nan nan nan nan nan nan nan nan nan nan nan nan nan nan nan nan
10 9 9 9 9 10 10 11 9 11 10 12 11 10 11 11 12 11 11 13 14 16 15 14 14 14 16 14 13 13 12 12 12 13 12 nan nan nan nan nan nan nan nan nan nan nan nan nan nan nan nan nan nan nan nan nan nan nan nan nan nan nan nan nan nan nan nan nan nan nan nan nan nan nan nan nan nan nan nan nan nan nan nan nan nan
12 11 9 8 9 8 10 10 9 11 9 10 12 12 12 12 13 12 13 15 16 16 15 16 14 14 14 13 14 13 14 14 14 14 13 14 nan nan nan nan nan nan nan nan nan nan nan nan nan nan nan nan nan nan nan nan nan nan nan nan nan nan nan nan nan nan nan nan nan nan nan nan nan nan nan nan nan nan nan nan nan nan nan nan nan
12 11 10 8 nan nan 9 8 10 9 12 9 11 14 12 13 13 14 14 15 16 15 15 15 14 14 14 15 14 14 14 15 16 18 17 14 13 nan nan nan nan nan nan nan nan nan nan nan nan nan nan nan nan nan nan nan nan nan nan nan nan nan nan nan nan nan nan nan nan nan nan nan nan nan nan nan nan nan nan nan nan nan nan nan nan
nan 12 11 11 10 nan nan 9 10 10 11 10 10 13 14 14 16 15 15 15 15 15 15 13 15 15 15 15 15 16 15 17 17 16 15 15 15 nan nan nan nan nan nan nan nan nan nan nan nan nan nan nan nan nan nan nan nan nan nan nan nan nan nan nan nan nan nan nan nan nan nan nan nan nan nan nan nan nan nan nan nan nan nan nan nan
nan nan nan nan 11 10 9 9 8 11 11 10 9 11 15 17 16 16 15 15 15 15 14 13 15 16 15 15 15 16 15 17 16 16 16 17 16 nan nan nan nan nan nan nan nan nan nan nan nan nan nan nan nan nan nan nan nan nan nan nan nan nan nan nan nan nan nan nan nan nan nan nan nan nan nan nan nan nan nan nan nan nan nan nan nan
nan nan nan nan nan 11 10 10 10 11 10 11 11 11 13 16 17 16 15 14 15 16 15 14 15 16 15 16 16 16 17 16 17 17 18 17 17 17 nan nan nan nan nan nan nan nan nan nan nan nan nan nan nan nan nan nan nan nan nan nan nan nan nan nan nan nan nan nan nan nan nan nan nan nan nan nan nan nan nan nan nan nan nan nan nan
nan nan nan nan nan nan 11 11 11 12 10 12 14 15 14 16 17 17 16 17 17 17 17 17 18 18 19 18 17 18 19 19 19 20 18 19 18 18 nan nan nan nan nan nan nan nan nan nan nan nan nan nan nan nan nan nan nan nan nan nan nan nan nan nan nan nan nan nan nan nan nan nan nan nan nan nan nan nan nan nan nan nan nan nan nan
nan nan nan nan nan nan nan nan nan 12 13 15 18 18 18 18 20 19 18 20 19 20 20 18 20 19 20 19 18 20 21 21 23 21 22 22 21 21 20 nan nan nan nan nan nan nan nan nan nan nan nan nan nan nan nan nan nan nan nan nan nan nan nan nan nan nan nan nan nan nan nan nan nan nan nan nan nan nan nan nan nan nan nan nan nan
nan nan nan nan nan nan nan nan nan 13 15 19 20 21 21 22 22 22 21 22 21 23 20 20 21 20 21 21 22 19 23 24 25 25 25 25 25 25 22 nan nan nan nan nan nan nan nan nan nan nan nan nan nan nan nan nan nan nan nan nan nan nan nan nan nan nan nan nan nan nan nan nan nan nan nan nan nan nan nan nan nan nan nan nan nan
nan nan nan nan nan nan nan nan nan 13 19 21 22 24 25 25 25 23 23 25 23 26 21 23 22 21 23 23 23 23 24 25 26 27 27 nan nan 27 26 25 nan nan nan nan nan nan nan nan nan nan nan nan nan nan nan nan nan nan nan nan nan nan nan nan nan nan nan nan nan nan nan nan nan nan nan nan nan nan nan nan nan nan nan nan nan
nan nan nan nan nan nan nan nan nan 18 22 24 25 26 26 25 27 25 25 24 24 26 24 25 22 22 24 24 23 24 25 26 nan nan 27 nan nan nan nan nan nan nan nan nan nan nan nan nan nan nan nan nan nan nan nan nan nan nan nan nan nan nan nan nan nan nan nan nan nan nan nan nan nan nan nan nan nan nan nan nan nan nan nan nan nan
nan nan nan nan nan nan nan nan nan nan 24 26 26 27 27 26 28 nan 23 22 25 28 26 27 23 23 24 25 24 25 26 28 27 28 nan nan nan nan nan nan nan nan nan nan nan nan nan nan nan nan nan nan nan nan nan nan nan nan nan nan nan nan nan nan nan nan nan nan nan nan nan nan nan nan nan nan nan nan nan nan nan nan nan nan nan
nan nan nan nan nan nan nan nan nan nan 26 27 29 28 26 28 28 26 23 20 25 28 26 28 26 25 25 25 26 26 28 28 30 30 30 nan nan nan nan nan nan nan nan nan nan nan nan nan nan nan nan nan nan nan nan nan nan nan nan nan nan nan nan nan nan nan nan nan nan nan nan nan nan nan nan nan nan nan nan nan nan nan nan nan nan
nan nan nan nan nan nan nan nan nan nan nan 28 31 30 26 29 29 25 24 23 27 26 27 nan nan nan nan nan nan nan nan nan nan nan 31 30 31 nan nan nan nan nan nan nan nan nan nan nan nan nan nan nan nan nan nan nan nan nan nan nan nan nan nan nan nan nan nan nan nan nan nan nan nan nan nan nan nan nan nan nan nan nan nan nan nan
nan nan nan nan nan nan nan nan nan nan nan 30 30 31 28 30 29 26 26 24 26 nan nan nan nan nan nan nan nan nan nan nan nan nan 32 nan nan nan nan nan nan nan nan nan nan nan nan nan nan nan nan nan nan nan nan nan nan nan nan nan nan nan nan nan nan nan nan nan nan nan nan nan nan nan nan nan nan nan nan nan nan nan nan nan nan
nan nan nan nan nan nan nan nan nan nan nan nan 32 32 29 32 30 28 28 28 nan nan nan nan nan nan nan nan nan nan nan nan nan nan nan nan nan nan nan nan nan nan nan nan nan nan nan nan nan nan nan nan nan nan nan nan nan nan nan nan nan nan nan nan nan nan nan nan nan nan nan nan nan nan nan nan nan nan nan nan nan nan nan nan nan
nan nan nan nan nan nan nan nan nan nan nan nan nan nan nan nan nan 29 nan nan nan nan nan nan nan nan nan nan nan nan nan nan nan nan nan nan nan nan nan nan nan nan nan nan nan nan nan nan nan nan nan nan nan nan nan nan nan nan nan nan nan nan nan nan nan nan nan nan nan nan nan nan nan nan nan nan nan nan nan nan nan nan nan nan nan
nan nan nan nan nan nan nan nan nan nan nan nan nan nan nan nan nan nan nan nan nan nan nan nan nan nan nan nan nan nan nan nan nan nan nan nan nan nan nan nan nan nan nan nan nan nan nan nan nan nan nan nan nan nan nan nan nan nan nan nan nan nan nan nan nan nan nan nan nan nan nan nan nan nan nan nan nan nan nan nan nan nan nan nan nan
nan nan nan nan nan nan nan nan nan nan nan nan nan nan nan nan nan nan nan nan nan nan nan nan nan nan nan nan nan nan nan nan nan nan nan nan nan nan nan nan nan nan nan nan nan nan nan nan nan nan nan nan nan nan nan nan nan nan nan nan nan nan nan nan nan nan nan nan nan nan nan nan nan nan nan nan nan nan nan nan nan nan nan nan nan
nan nan nan nan nan nan nan nan nan nan nan nan nan nan nan nan nan nan nan nan nan nan nan nan nan nan nan nan nan nan nan nan nan nan nan nan nan nan nan nan nan nan nan nan nan nan nan nan nan nan nan nan nan nan nan nan nan nan nan nan nan nan nan nan nan nan nan nan nan nan nan nan nan nan nan nan nan nan nan nan nan nan nan nan nan
nan nan nan nan nan nan nan nan nan nan nan nan nan nan nan nan nan nan nan nan nan nan nan nan nan nan nan nan nan nan nan nan nan nan nan nan nan nan nan nan nan nan nan nan nan nan nan nan nan nan nan nan nan nan nan nan nan nan nan nan nan nan nan nan nan nan nan nan nan nan nan nan nan nan nan nan nan nan nan nan nan nan nan nan nan
nan nan nan nan nan nan nan nan nan nan nan nan nan nan nan nan nan nan nan nan nan nan nan nan nan nan nan nan nan nan nan nan nan nan nan nan nan nan nan nan nan nan nan nan nan nan nan nan nan nan nan nan nan nan nan nan nan nan nan nan nan nan nan nan nan nan nan nan nan nan nan nan nan nan nan nan nan nan nan nan nan nan nan nan nan
nan nan nan nan nan nan nan nan nan nan nan nan nan nan nan nan nan nan nan nan nan nan nan nan nan nan nan nan nan nan nan nan nan nan nan nan nan nan nan nan nan nan nan nan nan nan nan nan nan nan nan nan nan nan nan nan nan nan nan nan nan nan nan nan nan nan nan nan nan nan nan nan nan nan nan nan nan nan nan nan nan nan nan nan nan
nan nan nan nan nan nan nan nan nan nan nan nan nan nan nan nan nan nan nan nan nan nan nan nan nan nan nan nan nan nan nan nan nan nan nan nan nan nan nan nan nan nan nan nan nan nan nan nan nan nan nan nan nan nan nan nan nan nan nan nan nan nan nan nan nan nan nan nan nan nan nan nan nan nan nan nan nan nan nan nan nan nan nan nan nan
nan nan nan nan nan nan nan nan nan nan nan nan nan nan nan nan nan nan nan nan nan nan nan nan nan nan nan nan nan nan nan nan nan nan nan nan nan nan nan nan nan nan nan nan nan nan nan nan nan nan nan nan nan nan nan nan nan nan nan nan nan nan nan nan nan nan nan nan nan nan nan nan nan nan nan nan nan nan nan nan nan nan nan nan nan
nan nan nan nan nan nan nan nan nan nan nan nan nan nan nan nan nan nan nan nan nan nan nan nan nan nan nan nan nan nan nan nan nan nan nan nan nan nan nan nan nan nan nan nan nan nan nan nan nan nan nan nan nan nan nan nan nan nan nan nan nan nan nan nan nan nan nan nan nan nan nan nan nan nan nan nan nan nan nan nan nan nan nan nan nan
nan nan nan nan nan nan nan nan nan nan nan nan nan nan nan nan nan nan nan nan nan nan nan nan nan nan nan nan nan nan nan nan nan nan nan nan nan nan nan nan nan nan nan nan nan nan nan nan nan nan nan nan nan nan nan nan nan nan nan nan nan nan nan nan nan nan nan nan nan nan nan nan nan nan nan nan nan nan nan nan nan nan nan nan nan
nan nan nan nan nan nan nan nan nan nan nan nan nan nan nan nan nan nan nan nan nan nan nan nan nan nan nan nan nan nan nan nan nan nan nan nan nan nan nan nan nan nan nan nan nan nan nan nan nan nan nan nan nan nan nan nan nan nan nan nan nan nan nan nan nan nan nan nan nan nan nan nan nan nan nan nan nan nan nan nan nan nan nan nan nan
nan nan nan nan nan nan nan nan nan nan nan nan nan nan nan nan nan nan nan nan nan nan nan nan nan nan nan nan nan nan nan nan nan nan nan nan nan nan nan nan nan nan nan nan nan nan nan nan nan nan nan nan nan nan nan nan nan nan nan nan nan nan nan nan nan nan nan nan nan nan nan nan nan nan nan nan nan nan nan nan nan nan nan nan nan
nan nan nan nan nan nan nan nan nan nan nan nan nan nan nan nan nan nan nan nan nan nan nan nan nan nan nan nan nan nan nan nan nan nan nan nan nan nan nan nan nan nan nan nan nan nan nan nan nan nan nan nan nan nan nan nan nan nan nan nan nan nan nan nan nan nan nan nan nan nan nan nan nan nan nan nan nan nan nan nan nan nan nan nan nan
Wind_Direction
74 72 87 69 53 70 83 283 247 246 246 243 245 249 250 252 257 261 262 258 253 248 245 241 235 237 237 240 242 244 244 245 246 245 246 245 241 239 238 236 nan nan nan nan nan 234 235 238 239 240 243 244 244 242 242 241 242 243 243 242 248 254 256 255 253 250 247 247 248 252 258 264 267 267 264 259 258 256 256 255 259 265 272 262 252
51 74 83 79 65 66 60 46 4 281 262 255 252 251 254 253 255 255 257 259 255 248 243 243 241 239 240 239 240 244 248 252 249 245 243 243 239 237 236 234 nan nan nan nan nan nan 234 235 237 237 239 241 241 240 239 239 240 240 240 242 249 254 256 255 254 251 250 250 251 251 254 261 266 270 271 268 265 261 261 260 257 nan 281 257 255
8 36 71 71 59 50 47 44 33 9 317 278 260 253 257 255 255 253 254 256 257 254 249 244 243 243 240 238 238 241 244 247 250 249 246 241 235 231 229 nan nan nan nan nan nan nan nan 233 234 234 234 nan nan nan nan 243 243 241 241 246 255 259 258 255 251 249 250 251 255 257 256 257 261 268 274 275 273 266 266 nan nan 264 274 256 nan
360 19 21 32 45 47 44 49 36 29 18 336 308 284 267 261 259 259 256 255 256 255 254 252 248 248 245 242 242 243 246 246 244 244 244 241 235 230 226 nan nan nan nan nan nan nan nan nan 233 nan nan nan nan nan 239 241 243 241 244 252 262 261 256 254 251 250 248 252 nan nan 279 284 277 266 270 272 269 267 269 267 nan nan nan nan nan
3 16 22 28 43 42 35 43 29 22 24 20 10 1 332 287 270 264 263 260 260 261 259 256 255 253 252 250 248 246 245 247 247 244 240 237 234 231 227 nan nan nan nan nan nan nan nan nan nan nan nan nan nan nan nan 240 240 243 249 257 265 262 258 256 254 252 nan nan nan nan nan nan 281 263 266 263 264 267 268 265 nan nan nan nan nan
11 15 24 33 32 33 5 10 1 2 14 19 16 16 19 350 318 286 272 270 269 267 265 262 257 254 254 251 250 249 248 249 248 246 244 240 235 232 228 225 nan nan nan nan nan nan nan nan nan nan nan nan nan nan nan 241 245 249 254 263 267 265 263 260 nan nan nan nan nan nan nan nan nan nan 255 258 nan nan nan nan nan nan nan nan nan
2 17 17 22 23 15 352 358 345 343 345 357 357 354 2 359 353 323 296 286 280 272 268 265 260 256 254 253 251 251 251 249 248 248 246 243 239 236 233 231 nan nan nan nan nan nan nan nan nan nan nan nan nan nan nan 251 253 258 263 268 267 267 266 264 nan nan nan nan nan nan nan nan nan nan nan nan nan nan nan nan nan nan nan nan nan
352 6 7 14 13 9 351 1 353 345 343 341 337 333 338 336 329 324 317 314 297 286 281 280 271 262 254 252 249 249 247 246 247 247 244 241 238 238 237 235 nan nan nan nan nan nan nan nan nan nan nan nan nan nan nan 256 259 265 268 268 267 265 265 nan nan nan nan nan nan nan nan nan nan nan nan nan nan nan nan nan nan nan nan nan nan
343 340 341 352 6 351 351 0 355 347 344 337 334 332 331 323 319 315 315 305 291 285 281 272 270 264 256 253 251 247 246 244 242 242 241 236 233 233 234 234 nan nan nan nan nan nan nan nan nan nan nan nan nan nan nan nan 261 266 268 269 nan nan nan nan nan nan nan nan nan nan nan nan nan nan nan nan nan nan nan nan nan nan nan nan nan
337 321 325 335 339 341 335 348 349 344 339 333 331 331 331 325 327 318 311 305 295 288 282 272 265 262 260 259 259 256 253 252 249 247 242 235 228 228 228 nan nan nan nan nan nan nan nan nan nan nan nan nan nan nan nan nan 257 262 264 264 nan nan nan nan nan nan nan nan nan nan nan nan nan nan nan nan nan nan nan nan nan nan nan nan nan
347 322 313 317 328 328 333 330 342 338 324 324 331 329 327 329 331 329 320 315 308 301 295 289 278 272 268 267 268 266 261 259 260 255 250 244 237 234 232 nan nan nan nan nan nan nan nan nan nan nan nan nan nan nan nan nan 253 254 256 nan nan nan nan nan nan nan nan nan nan nan nan nan nan nan nan nan nan nan nan nan nan nan nan nan nan
8 338 320 301 331 328 326 321 326 334 315 324 324 320 321 318 326 328 319 315 314 310 304 300 293 283 280 278 277 278 278 275 274 268 264 258 250 243 nan nan nan nan nan nan nan nan nan nan nan nan nan nan nan nan nan nan nan nan nan nan nan nan nan nan nan nan nan nan nan nan nan nan nan nan nan nan nan nan nan nan nan nan nan nan nan
5 360 0 347 2 353 327 329 325 328 323 327 325 316 313 314 320 313 312 312 309 308 303 299 293 288 287 288 289 288 286 286 283 281 276 269 260 250 243 nan nan nan nan nan nan nan nan nan nan nan nan nan nan nan nan nan nan nan nan nan nan nan nan nan nan nan nan nan nan nan nan nan nan nan nan nan nan nan nan nan nan nan nan nan nan
336 338 352 6 23 22 347 337 335 332 333 332 329 321 317 314 317 312 306 305 301 305 303 298 295 292 290 292 292 291 291 292 289 287 280 272 266 255 246 nan nan nan nan nan nan nan nan nan nan nan nan nan nan nan nan nan nan nan nan nan nan nan nan nan nan nan nan nan nan nan nan nan nan nan nan nan nan nan nan nan nan nan nan nan nan
312 312 313 318 350 20 4 348 348 344 346 338 327 329 331 331 329 319 318 308 303 305 302 298 295 292 291 291 292 292 292 292 291 283 279 278 272 263 253 250 nan nan nan nan nan nan nan nan nan nan nan nan nan nan nan nan nan nan nan nan nan nan nan nan nan nan nan nan nan nan nan nan nan nan nan nan nan nan nan nan nan nan nan nan nan
291 293 289 289 299 303 335 351 345 348 349 340 332 338 343 338 326 327 325 321 312 305 305 300 296 291 292 292 292 293 292 292 288 284 280 278 274 268 262 259 nan nan nan nan nan nan nan nan nan nan nan nan nan nan nan nan nan nan nan nan nan nan nan nan nan nan nan nan nan nan nan nan nan nan nan nan nan nan nan nan nan nan nan nan nan
285 287 282 287 288 280 290 306 312 330 322 307 321 331 327 334 325 329 324 320 303 302 308 308 300 297 295 295 293 291 290 289 287 286 283 281 277 273 269 nan nan nan nan nan nan nan nan nan nan nan nan nan nan nan nan nan nan nan nan nan nan nan nan nan nan nan nan nan nan nan nan nan nan nan nan nan nan nan nan nan nan nan nan nan nan
277 281 284 283 282 289 289 286 286 292 274 282 298 313 308 303 307 306 307 304 297 293 295 301 304 301 295 289 286 287 290 289 289 291 291 288 284 280 277 nan nan nan nan nan nan nan nan nan nan nan nan nan nan nan nan nan nan nan nan nan nan nan nan nan nan nan nan nan nan nan nan nan nan nan nan nan nan nan nan nan nan nan nan nan nan
268 267 268 263 249 245 272 305 304 284 273 276 263 283 294 293 291 290 289 297 290 286 289 290 297 295 290 287 286 290 293 293 291 292 293 291 288 285 nan nan nan nan nan nan nan nan nan nan nan nan nan nan nan nan nan nan nan nan nan nan nan nan nan nan nan nan nan nan nan nan nan nan nan nan nan nan nan nan nan nan nan nan nan nan nan
270 266 265 259 253 260 266 278 294 281 278 276 273 271 281 285 283 281 289 291 290 288 286 288 290 286 284 283 283 282 283 285 292 290 297 296 nan nan nan nan nan nan nan nan nan nan nan nan nan nan nan nan nan nan nan nan nan nan nan nan nan nan nan nan nan nan nan nan nan nan nan nan nan nan nan nan nan nan nan nan nan nan nan nan nan
270 265 264 261 262 261 262 255 277 293 287 283 284 279 281 289 284 291 299 291 292 287 284 282 280 279 282 284 284 281 277 277 285 277 nan nan nan nan nan nan nan nan nan nan nan nan nan nan nan nan nan nan nan nan nan nan nan nan nan nan nan nan nan nan nan nan nan nan nan nan nan nan nan nan nan nan nan nan nan nan nan nan nan nan nan
278 278 269 267 269 261 257 259 257 255 270 282 279 278 274 283 280 276 275 271 271 271 273 273 278 277 284 287 280 282 272 273 274 271 264 nan nan nan nan nan nan nan nan nan nan nan nan nan nan nan nan nan nan nan nan nan nan nan nan nan nan nan nan nan nan nan nan nan nan nan nan nan nan nan nan nan nan nan nan nan nan nan nan nan nan
291 280 278 262 265 272 263 261 258 257 267 282 283 280 283 280 273 279 270 268 266 271 270 276 274 279 281 282 272 270 269 267 265 270 267 272 nan nan nan nan nan nan nan nan nan nan nan nan nan nan nan nan nan nan nan nan nan nan nan nan nan nan nan nan nan nan nan nan nan nan nan nan nan nan nan nan nan nan nan nan nan nan nan nan nan
296 288 282 271 nan nan 261 284 258 255 261 275 287 283 283 282 282 269 276 271 267 270 271 275 273 271 267 263 268 268 270 268 269 273 271 267 267 nan nan nan nan nan nan nan nan nan nan nan nan nan nan nan nan nan nan nan nan nan nan nan nan nan nan nan nan nan nan nan nan nan nan nan nan nan nan nan nan nan nan nan nan nan nan nan nan
nan 282 280 280 268 nan nan 258 258 262 256 264 281 293 287 290 275 279 276 273 274 275 270 267 269 266 261 265 268 266 267 261 269 269 270 272 270 nan nan nan nan nan nan nan nan nan nan nan nan nan nan nan nan nan nan nan nan nan nan nan nan nan nan nan nan nan nan nan nan nan nan nan nan nan nan nan nan nan nan nan nan nan nan nan nan
nan nan nan nan 274 273 274 270 271 268 270 269 273 294 296 292 289 288 286 279 274 275 275 271 266 270 271 269 268 267 269 270 272 275 271 276 273 nan nan nan nan nan nan nan nan nan nan nan nan nan nan nan nan nan nan nan nan nan nan nan nan nan nan nan nan nan nan nan nan nan nan nan nan nan nan nan nan nan nan nan nan nan nan nan nan
nan nan nan nan nan 269 268 270 270 263 269 276 276 283 287 300 296 292 289 284 281 275 273 268 267 267 266 271 271 270 267 272 275 279 280 276 276 272 nan nan nan nan nan nan nan nan nan nan nan nan nan nan nan nan nan nan nan nan nan nan nan nan nan nan nan nan nan nan nan nan nan nan nan nan nan nan nan nan nan nan nan nan nan nan nan
nan nan nan nan nan nan 265 262 263 269 273 273 280 288 289 291 291 292 288 282 276 274 269 266 262 256 257 260 269 273 277 275 270 267 262 271 275 272 nan nan nan nan nan nan nan nan nan nan nan nan nan nan nan nan nan nan nan nan nan nan nan nan nan nan nan nan nan nan nan nan nan nan nan nan nan nan nan nan nan nan nan nan nan nan nan
nan nan nan nan nan nan nan nan nan 272 277 276 280 281 282 280 279 281 280 277 274 268 269 266 264 260 258 259 265 277 273 275 275 274 271 266 268 271 277 nan nan nan nan nan nan nan nan nan nan nan nan nan nan nan nan nan nan nan nan nan nan nan nan nan nan nan nan nan nan nan nan nan nan nan nan nan nan nan nan nan nan nan nan nan nan
nan nan nan nan nan nan nan nan nan 272 276 278 277 278 275 272 270 273 274 273 273 268 266 267 264 267 262 263 265 264 274 277 275 273 274 271 270 271 270 nan nan nan nan nan nan nan nan nan nan nan nan nan nan nan nan nan nan nan nan nan nan nan nan nan nan nan nan nan nan nan nan nan nan nan nan nan nan nan nan nan nan nan nan nan nan
nan nan nan nan nan nan nan nan nan 276 276 278 278 276 274 271 272 264 270 272 271 271 264 267 266 268 270 269 270 271 275 276 277 278 279 nan nan 279 280 282 nan nan nan nan nan nan nan nan nan nan nan nan nan nan nan nan nan nan nan nan nan nan nan nan nan nan nan nan nan nan nan nan nan nan nan nan nan nan nan nan nan nan nan nan nan
nan nan nan nan nan nan nan nan nan 286 282 279 278 276 275 273 271 266 263 268 273 270 269 266 264 268 273 274 273 277 277 275 nan nan 284 nan nan nan nan nan nan nan nan nan nan nan nan nan nan nan nan nan nan nan nan nan nan nan nan nan nan nan nan nan nan nan nan nan nan nan nan nan nan nan nan nan nan nan nan nan nan nan nan nan nan
nan nan nan nan nan nan nan nan nan nan 287 283 278 274 276 277 273 nan 266 264 267 266 266 267 263 262 266 270 272 274 275 279 278 282 nan nan nan nan nan nan nan nan nan nan nan nan nan nan nan nan nan nan nan nan nan nan nan nan nan nan nan nan nan nan nan nan nan nan nan nan nan nan nan nan nan nan nan nan nan nan nan nan nan nan nan
nan nan nan nan nan nan nan nan nan nan 286 282 280 277 275 278 274 273 266 264 264 263 264 263 262 261 261 263 267 268 273 276 281 280 282 nan nan nan nan nan nan nan nan nan nan nan nan nan nan nan nan nan nan nan nan nan nan nan nan nan nan nan nan nan nan nan nan nan nan nan nan nan nan nan nan nan nan nan nan nan nan nan nan nan nan
nan nan nan nan nan nan nan nan nan nan nan 281 281 278 276 277 276 273 270 265 265 266 265 nan nan nan nan nan nan nan nan nan nan nan 284 284 285 nan nan nan nan nan nan nan nan nan nan nan nan nan nan nan nan nan nan nan nan nan nan nan nan nan nan nan nan nan nan nan nan nan nan nan nan nan nan nan nan nan nan nan nan nan nan nan nan
nan nan nan nan nan nan nan nan nan nan nan 279 280 279 277 274 272 272 271 265 269 nan nan nan nan nan nan nan nan nan nan nan nan nan 285 nan nan nan nan nan nan nan nan nan nan nan nan nan nan nan nan nan nan nan nan nan nan nan nan nan nan nan nan nan nan nan nan nan nan nan nan nan nan nan nan nan nan nan nan nan nan nan nan nan nan
nan nan nan nan nan nan nan nan nan nan nan nan 277 275 276 274 271 269 271 270 nan nan nan nan nan nan nan nan nan nan nan nan nan nan nan nan nan nan nan nan nan nan nan nan nan nan nan nan nan nan nan nan nan nan nan nan nan nan nan nan nan nan nan nan nan nan nan nan nan nan nan nan nan nan nan nan nan nan nan nan nan nan nan nan nan
nan nan nan nan nan nan nan nan nan nan nan nan nan nan nan nan nan 271 nan nan nan nan nan nan nan nan nan nan nan nan nan nan nan nan nan nan nan nan nan nan nan nan nan nan nan nan nan nan nan nan nan nan nan nan nan nan nan nan nan nan nan nan nan nan nan nan nan nan nan nan nan nan nan nan nan nan nan nan nan nan nan nan nan nan nan
nan nan nan nan nan nan nan nan nan nan nan nan nan nan nan nan nan nan nan nan nan nan nan nan nan nan nan nan nan nan nan nan nan nan nan nan nan nan nan nan nan nan nan nan nan nan nan nan nan nan nan nan nan nan nan nan nan nan nan nan nan nan nan nan nan nan nan nan nan nan nan nan nan nan nan nan nan nan nan nan nan nan nan nan nan
nan nan nan nan nan nan nan nan nan nan nan nan nan nan nan nan nan nan nan nan nan nan nan nan nan nan nan nan nan nan nan nan nan nan nan nan nan nan nan nan nan nan nan nan nan nan nan nan nan nan nan nan nan nan nan nan nan nan nan nan nan nan nan nan nan nan nan nan nan nan nan nan nan nan nan nan nan nan nan nan nan nan nan nan nan
nan nan nan nan nan nan nan nan nan nan nan nan nan nan nan nan nan nan nan nan nan nan nan nan nan nan nan nan nan nan nan nan nan nan nan nan nan nan nan nan nan nan nan nan nan nan nan nan nan nan nan nan nan nan nan nan nan nan nan nan nan nan nan nan nan nan nan nan nan nan nan nan nan nan nan nan nan nan nan nan nan nan nan nan nan
nan nan nan nan nan nan nan nan nan nan nan nan nan nan nan nan nan nan nan nan nan nan nan nan nan nan nan nan nan nan nan nan nan nan nan nan nan nan nan nan nan nan nan nan nan nan nan nan nan nan nan nan nan nan nan nan nan nan nan nan nan nan nan nan nan nan nan nan nan nan nan nan nan nan nan nan nan nan nan nan nan nan nan nan nan
nan nan nan nan nan nan nan nan nan nan nan nan nan nan nan nan nan nan nan nan nan nan nan nan nan nan nan nan nan nan nan nan nan nan nan nan nan nan nan nan nan nan nan nan nan nan nan nan nan nan nan nan nan nan nan nan nan nan nan nan nan nan nan nan nan nan nan nan nan nan nan nan nan nan nan nan nan nan nan nan nan nan nan nan nan
nan nan nan nan nan nan nan nan nan nan nan nan nan nan nan nan nan nan nan nan nan nan nan nan nan nan nan nan nan nan nan nan nan nan nan nan nan nan nan nan nan nan nan nan nan nan nan nan nan nan nan nan nan nan nan nan nan nan nan nan nan nan nan nan nan nan nan nan nan nan nan nan nan nan nan nan nan nan nan nan nan nan nan nan nan
nan nan nan nan nan nan nan nan nan nan nan nan nan nan nan nan nan nan nan nan nan nan nan nan nan nan nan nan nan nan nan nan nan nan nan nan nan nan nan nan nan nan nan nan nan nan nan nan nan nan nan nan nan nan nan nan nan nan nan nan nan nan nan nan nan nan nan nan nan nan nan nan nan nan nan nan nan nan nan nan nan nan nan nan nan
nan nan nan nan nan nan nan nan nan nan nan nan nan nan nan nan nan nan nan nan nan nan nan nan nan nan nan nan nan nan nan nan nan nan nan nan nan nan nan nan nan nan nan nan nan nan nan nan nan nan nan nan nan nan nan nan nan nan nan nan nan nan nan nan nan nan nan nan nan nan nan nan nan nan nan nan nan nan nan nan nan nan nan nan nan
nan nan nan nan nan nan nan nan nan nan nan nan nan nan nan nan nan nan nan nan nan nan nan nan nan nan nan nan nan nan nan nan nan nan nan nan nan nan nan nan nan nan nan nan nan nan nan nan nan nan nan nan nan nan nan nan nan nan nan nan nan nan nan nan nan nan nan nan nan nan nan nan nan nan nan nan nan nan nan nan nan nan nan nan nan
nan nan nan nan nan nan nan nan nan nan nan nan nan nan nan nan nan nan nan nan nan nan nan nan nan nan nan nan nan nan nan nan nan nan nan nan nan nan nan nan nan nan nan nan nan nan nan nan nan nan nan nan nan nan nan nan nan nan nan nan nan nan nan nan nan nan nan nan nan nan nan nan nan nan nan nan nan nan nan nan nan nan nan nan nan
nan nan nan nan nan nan nan nan nan nan nan nan nan nan nan nan nan nan nan nan nan nan nan nan nan nan nan nan nan nan nan nan nan nan nan nan nan nan nan nan nan nan nan nan nan nan nan nan nan nan nan nan nan nan nan nan nan nan nan nan nan nan nan nan nan nan nan nan nan nan nan nan nan nan nan nan nan nan nan nan nan nan nan nan nan
nan nan nan nan nan nan nan nan nan nan nan nan nan nan nan nan nan nan nan nan nan nan nan nan nan nan nan nan nan nan nan nan nan nan nan nan nan nan nan nan nan nan nan nan nan nan nan nan nan nan nan nan nan nan nan nan nan nan nan nan nan nan nan nan nan nan nan nan nan nan nan nan nan nan nan nan nan nan nan nan nan nan nan nan nan
nan nan nan nan nan nan nan nan nan nan nan nan nan nan nan nan nan nan nan nan nan nan nan nan nan nan nan nan nan nan nan nan nan nan nan nan nan nan nan nan nan nan nan nan nan nan nan nan nan nan nan nan nan nan nan nan nan nan nan nan nan nan nan nan nan nan nan nan nan nan nan nan nan nan nan nan nan nan nan nan nan nan nan nan nan